Location: Basses Si�yes
(44.0835°N, 6.2037°E)
Time: 16:52:51
(UTC+00:00)

HJ-1C - Pass Details

Date: 27 February 2020
Orbit: 434 x 446 km, 97.2° (Epoch: 28 March)

Event Time Altitude Azimuth Distance (km) Brightness Sun altitude
Rises 18:39:52 0° 168° (SSE) 2,402 6.9 -15.1°
Reaches altitude 10° 18:41:52 10° 169° (S) 1,538 6.0 -15.5°
Maximum altitude 18:45:10 84° 259° (W) 444 3.3 -16.0°
Drops below altitude 10° 18:48:29 10° 347° (NNW) 1,551 6.3 -16.6°
Sets 18:50:31 0° 348° (NNW) 2,425 7.3 -17.0°
